TimeEDT,TemperatureF,Dew PointF,Humidity,Sea Level PressureIn,VisibilityMPH,Wind Direction,Wind SpeedMPH,Gust SpeedMPH,PrecipitationIn,Events,Conditions,WindDirDegrees,DateUTC
12:53 AM,57.9,55.9,93,30.08,10.0,NNE,3.5,-,N/A,,Partly Cloudy,30,2012-09-21 04:53:00
1:15 AM,59.0,55.4,88,30.11,10.0,Calm,Calm,-,N/A,,Mostly Cloudy,0,2012-09-21 05:15:00
1:53 AM,59.0,55.9,90,30.08,10.0,Calm,Calm,-,N/A,,Scattered Clouds,0,2012-09-21 05:53:00
2:53 AM,59.0,55.9,90,30.08,10.0,Calm,Calm,-,N/A,,Clear,0,2012-09-21 06:53:00
3:53 AM,57.0,54.0,89,30.07,10.0,Calm,Calm,-,N/A,,Clear,0,2012-09-21 07:53:00
4:53 AM,57.0,54.0,89,30.06,10.0,Calm,Calm,-,N/A,,Clear,0,2012-09-21 08:53:00
5:53 AM,57.0,55.0,93,30.06,10.0,NNE,3.5,-,N/A,,Clear,20,2012-09-21 09:53:00
6:53 AM,55.9,54.0,93,30.08,10.0,NNE,3.5,-,N/A,,Clear,20,2012-09-21 10:53:00
7:53 AM,57.9,55.0,90,30.08,10.0,North,3.5,-,N/A,,Clear,10,2012-09-21 11:53:00
8:53 AM,64.0,59.0,84,30.08,10.0,SE,4.6,-,N/A,,Clear,130,2012-09-21 12:53:00
9:53 AM,66.9,57.9,73,30.08,10.0,ESE,6.9,-,N/A,,Partly Cloudy,110,2012-09-21 13:53:00
10:19 AM,68.0,57.2,68,30.10,10.0,SE,8.1,-,N/A,,Mostly Cloudy,130,2012-09-21 14:19:00
10:53 AM,69.1,57.9,68,30.08,10.0,South,5.8,-,N/A,,Mostly Cloudy,170,2012-09-21 14:53:00
11:10 AM,69.8,57.2,64,30.09,10.0,ESE,4.6,-,N/A,,Mostly Cloudy,110,2012-09-21 15:10:00
11:53 AM,71.1,57.0,61,30.06,10.0,SSE,8.1,-,N/A,,Scattered Clouds,160,2012-09-21 15:53:00
12:53 PM,73.0,55.9,55,30.04,10.0,SE,6.9,-,N/A,,Mostly Cloudy,140,2012-09-21 16:53:00
1:53 PM,73.0,55.0,53,30.03,10.0,Calm,Calm,-,N/A,,Clear,0,2012-09-21 17:53:00
2:53 PM,75.0,55.0,50,30.01,10.0,SSW,8.1,-,N/A,,Clear,210,2012-09-21 18:53:00
3:53 PM,75.0,55.9,51,29.99,10.0,ESE,10.4,-,N/A,,Scattered Clouds,120,2012-09-21 19:53:00
4:53 PM,73.9,55.9,53,29.98,10.0,SE,10.4,-,N/A,,Mostly Cloudy,130,2012-09-21 20:53:00
5:53 PM,72.0,55.0,55,29.99,10.0,SSE,10.4,-,N/A,,Clear,150,2012-09-21 21:53:00
6:53 PM,66.2,53.6,64,30.02,10.0,SSE,10.4,-,N/A,,Clear,150,2012-09-21 22:53:00
7:53 PM,64.9,55.0,70,30.01,10.0,SSE,8.1,-,N/A,,Clear,150,2012-09-21 23:53:00
8:53 PM,63.0,55.9,78,30.01,10.0,SSE,5.8,-,N/A,,Clear,160,2012-09-22 00:53:00
9:53 PM,62.1,55.9,80,30.01,10.0,South,3.5,-,N/A,,Clear,180,2012-09-22 01:53:00
10:53 PM,61.0,55.9,83,30.01,10.0,Calm,Calm,-,N/A,,Clear,0,2012-09-22 02:53:00
11:53 PM,57.9,55.0,90,29.99,10.0,SE,3.5,-,N/A,,Clear,140,2012-09-22 03:53:00